Private Wetterstation Wechselburg
Wetterdaten: Montag, 20.04.2015
Datum Zeit Temp. +2m Bodentemp. Temp.+5cm Temp. Wind Windchill X Diff Temp. Feuchte +2m Feuchte +5cm Sonnenschein Luftdruck Regen Wind Richtung Richtung Sonnenschein Taupunkt Windchill Windben
20.04.2015 00:00 4,1 C 21,0 C 4,1 C 3,4 C 2,0 C 0,0 C 76 % 78 % 0 % 1024,6 hPa 0,0 l/m 0,0 km/h (0 Bft) W-SW 247 0 min 0,3 C 2,0 C 0,0 km/h (0 Bft)
20.04.2015 00:05 4,1 C 21,0 C 4,1 C 3,4 C 2,0 C 0,0 C 76 % 78 % 0 % 1024,6 hPa 0,0 l/m 0,0 km/h (0 Bft) W-SW 247 0 min 0,3 C 2,0 C 0,0 km/h (0 Bft)
20.04.2015 00:10 3,9 C 21,0 C 3,9 C 3,2 C 1,8 C 0,0 C 76 % 78 % 0 % 1024,6 hPa 0,0 l/m 0,0 km/h (0 Bft) W-SW 247 0 min 0,1 C 1,8 C 0,0 km/h (0 Bft)
20.04.2015 00:15 3,8 C 21,0 C 3,9 C 3,1 C 1,7 C 0,0 C 77 % 78 % 0 % 1024,6 hPa 0,0 l/m 0,0 km/h (0 Bft) W 270 0 min 0,1 C 1,7 C 0,0 km/h (0 Bft)
20.04.2015 00:20 3,6 C 21,0 C 3,7 C 3,0 C 1,7 C 0,0 C 77 % 78 % 0 % 1024,8 hPa 0,0 l/m 0,0 km/h (0 Bft) W-SW 247 0 min -0,0 C 1,7 C 0,0 km/h (0 Bft)
20.04.2015 00:25 3,6 C 21,0 C 3,5 C 3,0 C 1,7 C 0,0 C 77 % 78 % 0 % 1024,8 hPa 0,0 l/m 0,0 km/h (0 Bft) O-NO 67 0 min -0,0 C 1,7 C 0,0 km/h (0 Bft)
20.04.2015 00:30 3,5 C 21,0 C 3,4 C 2,9 C 1,8 C 0,0 C 78 % 79 % 0 % 1024,8 hPa 0,0 l/m 0,0 km/h (0 Bft) O-NO 67 0 min 0,0 C 1,8 C 0,0 km/h (0 Bft)
20.04.2015 00:35 3,5 C 20,9 C 3,5 C 2,9 C 1,7 C 0,0 C 78 % 79 % 0 % 1024,8 hPa 0,0 l/m 0,0 km/h (0 Bft) W-SW 247 0 min 0,0 C 1,7 C 0,0 km/h (0 Bft)
20.04.2015 00:40 3,3 C 21,0 C 3,3 C 2,7 C 1,6 C 0,0 C 78 % 79 % 0 % 1025,1 hPa 0,0 l/m 0,0 km/h (0 Bft) W-SW 247 0 min -0,2 C 1,6 C 0,0 km/h (0 Bft)
20.04.2015 00:45 3,2 C 20,9 C 3,3 C 2,6 C 1,4 C 0,0 C 78 % 79 % 0 % 1025,1 hPa 0,0 l/m 0,0 km/h (0 Bft) W-SW 247 0 min -0,3 C 1,4 C 0,0 km/h (0 Bft)
20.04.2015 00:50 3,1 C 20,9 C 3,2 C 2,5 C 1,4 C 0,0 C 78 % 80 % 0 % 1025,1 hPa 0,0 l/m 0,0 km/h (0 Bft) W-SW 247 0 min -0,4 C 1,4 C 0,0 km/h (0 Bft)
20.04.2015 00:55 3,0 C 21,0 C 3,1 C 2,4 C 1,3 C 0,0 C 79 % 80 % 0 % 1025,1 hPa 0,0 l/m 0,0 km/h (0 Bft) NO 45 0 min -0,3 C 1,3 C 0,0 km/h (0 Bft)
20.04.2015 01:00 2,9 C 21,0 C 3,1 C 2,3 C 1,2 C 0,0 C 79 % 80 % 0 % 1025,7 hPa 0,0 l/m 0,0 km/h (0 Bft) NO 45 0 min -0,4 C 1,2 C 0,0 km/h (0 Bft)
20.04.2015 01:05 2,7 C 21,0 C 3,1 C 2,1 C 1,0 C 0,0 C 78 % 80 % 0 % 1025,7 hPa 0,0 l/m 0,0 km/h (0 Bft) W 270 0 min -0,7 C 1,0 C 0,0 km/h (0 Bft)
20.04.2015 01:10 2,7 C 21,0 C 3,0 C 2,1 C 0,9 C 0,0 C 79 % 80 % 0 % 1025,7 hPa 0,0 l/m 0,0 km/h (0 Bft) W 270 0 min -0,6 C 0,9 C 0,0 km/h (0 Bft)
20.04.2015 01:15 2,5 C 20,9 C 2,8 C 1,9 C 0,8 C 0,0 C 79 % 81 % 0 % 1025,7 hPa 0,0 l/m 0,0 km/h (0 Bft) W 270 0 min -0,8 C 0,8 C 0,0 km/h (0 Bft)
20.04.2015 01:20 2,5 C 21,0 C 2,9 C 1,9 C 0,7 C 0,0 C 79 % 81 % 0 % 1025,7 hPa 0,0 l/m 0,0 km/h (0 Bft) W-SW 247 0 min -0,8 C 0,7 C 0,0 km/h (0 Bft)
20.04.2015 01:25 2,3 C 21,0 C 2,8 C 1,8 C 0,7 C 0,0 C 80 % 81 % 0 % 1025,7 hPa 0,0 l/m 0,0 km/h (0 Bft) W-SW 247 0 min -0,8 C 0,7 C 0,0 km/h (0 Bft)
20.04.2015 01:30 2,3 C 21,0 C 2,8 C 1,7 C 0,6 C 0,0 C 80 % 82 % 0 % 1025,7 hPa 0,0 l/m 0,0 km/h (0 Bft) W-SW 247 0 min -0,8 C 0,6 C 0,0 km/h (0 Bft)
20.04.2015 01:35 2,0 C 21,0 C 2,6 C 1,5 C 0,5 C 0,0 C 80 % 81 % 0 % 1025,7 hPa 0,0 l/m 0,0 km/h (0 Bft) W 270 0 min -1,1 C 0,5 C 0,0 km/h (0 Bft)
20.04.2015 01:40 2,1 C 21,0 C 2,7 C 1,6 C 0,5 C 0,0 C 80 % 82 % 0 % 1025,4 hPa 0,0 l/m 0,0 km/h (0 Bft) W 270 0 min -1,0 C 0,5 C 0,0 km/h (0 Bft)
20.04.2015 01:45 1,9 C 21,0 C 2,4 C 1,4 C 0,4 C 0,0 C 80 % 82 % 0 % 1025,4 hPa 0,0 l/m 0,0 km/h (0 Bft) W 270 0 min -1,2 C 0,4 C 0,0 km/h (0 Bft)
20.04.2015 01:50 1,9 C 21,0 C 2,4 C 1,4 C 0,3 C 0,0 C 80 % 82 % 0 % 1025,4 hPa 0,0 l/m 0,0 km/h (0 Bft) S 180 0 min -1,2 C 0,3 C 0,0 km/h (0 Bft)
20.04.2015 01:55 1,7 C 20,9 C 2,4 C 1,2 C 0,3 C 0,0 C 81 % 82 % 0 % 1025,4 hPa 0,0 l/m 0,0 km/h (0 Bft) W-NW 292 0 min -1,2 C 0,3 C 0,0 km/h (0 Bft)
20.04.2015 02:00 1,7 C 20,9 C 2,3 C 1,2 C 0,3 C 0,0 C 81 % 82 % 0 % 1025,6 hPa 0,0 l/m 0,0 km/h (0 Bft) W 270 0 min -1,2 C 0,3 C 0,0 km/h (0 Bft)
20.04.2015 02:05 1,5 C 20,9 C 2,2 C 1,1 C 0,2 C 0,0 C 80 % 82 % 0 % 1025,6 hPa 0,0 l/m 0,0 km/h (0 Bft) W-SW 247 0 min -1,6 C 0,2 C 0,0 km/h (0 Bft)
20.04.2015 02:10 1,4 C 20,9 C 2,3 C 1,0 C 0,2 C 0,0 C 81 % 83 % 0 % 1025,6 hPa 0,0 l/m 0,0 km/h (0 Bft) S-SW 202 0 min -1,5 C 0,2 C 0,0 km/h (0 Bft)
20.04.2015 02:15 1,3 C 20,9 C 2,1 C 0,9 C 0,2 C 0,0 C 81 % 83 % 0 % 1025,6 hPa 0,0 l/m 0,0 km/h (0 Bft) SW 225 0 min -1,6 C 0,2 C 0,0 km/h (0 Bft)
20.04.2015 02:20 1,2 C 20,9 C 2,1 C 0,9 C 0,2 C 0,0 C 81 % 83 % 0 % 1025,5 hPa 0,0 l/m 0,0 km/h (0 Bft) SW 225 0 min -1,7 C 0,2 C 0,0 km/h (0 Bft)
20.04.2015 02:25 1,2 C 20,9 C 2,0 C 0,9 C 0,2 C 0,0 C 81 % 83 % 0 % 1025,5 hPa 0,0 l/m 0,0 km/h (0 Bft) SW 225 0 min -1,7 C 0,2 C 0,0 km/h (0 Bft)
20.04.2015 02:30 1,1 C 20,9 C 2,1 C 0,8 C 0,3 C 0,0 C 81 % 83 % 0 % 1025,5 hPa 0,0 l/m 0,0 km/h (0 Bft) SW 225 0 min -1,8 C 0,3 C 0,0 km/h (0 Bft)
20.04.2015 02:35 1,1 C 20,9 C 2,0 C 0,8 C 0,3 C 0,0 C 81 % 83 % 0 % 1025,5 hPa 0,0 l/m 0,0 km/h (0 Bft) SW 225 0 min -1,8 C 0,3 C 0,0 km/h (0 Bft)
20.04.2015 02:40 1,1 C 20,8 C 2,1 C 0,8 C 0,3 C 0,0 C 81 % 83 % 0 % 1025,1 hPa 0,0 l/m 0,0 km/h (0 Bft) SW 225 0 min -1,8 C 0,3 C 0,0 km/h (0 Bft)
20.04.2015 02:45 0,9 C 20,8 C 2,1 C 0,7 C 0,4 C 0,0 C 82 % 84 % 0 % 1025,1 hPa 0,0 l/m 0,0 km/h (0 Bft) SW 225 0 min -1,8 C 0,4 C 0,0 km/h (0 Bft)
20.04.2015 02:50 0,8 C 20,8 C 2,1 C 0,7 C 0,5 C 0,0 C 82 % 84 % 0 % 1025,1 hPa 0,0 l/m 0,0 km/h (0 Bft) SW 225 0 min -1,9 C 0,5 C 0,0 km/h (0 Bft)
20.04.2015 02:55 0,8 C 20,8 C 2,3 C 0,7 C 0,6 C 0,0 C 82 % 84 % 0 % 1025,1 hPa 0,0 l/m 0,0 km/h (0 Bft) S-SW 202 0 min -1,9 C 0,6 C 0,0 km/h (0 Bft)
20.04.2015 03:00 0,8 C 20,8 C 2,4 C 0,7 C 0,6 C 0,0 C 82 % 84 % 0 % 1025,6 hPa 0,0 l/m 0,0 km/h (0 Bft) S-SW 202 0 min -1,9 C 0,6 C 0,0 km/h (0 Bft)
20.04.2015 03:05 0,8 C 20,7 C 2,4 C 0,8 C 0,8 C 0,0 C 83 % 84 % 0 % 1025,6 hPa 0,0 l/m 0,0 km/h (0 Bft) O-NO 67 0 min -1,8 C 0,8 C 0,0 km/h (0 Bft)
20.04.2015 03:10 0,8 C 20,7 C 2,4 C 0,9 C 0,9 C 0,1 C 83 % 84 % 0 % 1025,6 hPa 0,0 l/m 0,0 km/h (0 Bft) O-NO 67 0 min -1,8 C 0,9 C 0,0 km/h (0 Bft)
20.04.2015 03:15 0,9 C 20,7 C 2,4 C 1,2 C 1,2 C 0,3 C 83 % 84 % 0 % 1025,6 hPa 0,0 l/m 0,0 km/h (0 Bft) O-SO 112 0 min -1,7 C 1,2 C 0,0 km/h (0 Bft)
20.04.2015 03:20 1,1 C 20,7 C 2,4 C 1,4 C 1,4 C 0,3 C 83 % 84 % 0 % 1025,6 hPa 0,0 l/m 0,0 km/h (0 Bft) O-NO 67 0 min -1,5 C 1,4 C 0,0 km/h (0 Bft)
20.04.2015 03:25 1,1 C 20,7 C 2,5 C 1,5 C 1,5 C 0,4 C 83 % 84 % 0 % 1025,6 hPa 0,0 l/m 0,0 km/h (0 Bft) W-SW 247 0 min -1,5 C 1,5 C 0,0 km/h (0 Bft)
20.04.2015 03:30 1,2 C 20,6 C 2,5 C 1,5 C 1,5 C 0,3 C 83 % 84 % 0 % 1025,6 hPa 0,0 l/m 0,3 km/h (0 Bft) W-SW 247 0 min -1,4 C 1,5 C 2,6 km/h (1 Bft)
20.04.2015 03:35 1,1 C 20,7 C 2,4 C 1,4 C 1,4 C 0,3 C 83 % 84 % 0 % 1025,6 hPa 0,0 l/m 0,5 km/h (0 Bft) W-SW 247 0 min -1,5 C 1,4 C 2,7 km/h (1 Bft)
20.04.2015 03:40 1,1 C 20,7 C 2,3 C 1,1 C 1,1 C 0,0 C 83 % 84 % 0 % 1025,1 hPa 0,0 l/m 0,5 km/h (0 Bft) NW 315 0 min -1,5 C 1,1 C 0,0 km/h (0 Bft)
20.04.2015 03:45 0,9 C 20,6 C 2,1 C 0,9 C 0,8 C 0,0 C 83 % 84 % 0 % 1025,1 hPa 0,0 l/m 0,0 km/h (0 Bft) W-SW 247 0 min -1,7 C 0,8 C 0,0 km/h (0 Bft)
20.04.2015 03:50 0,9 C 20,6 C 2,0 C 0,8 C 0,6 C 0,0 C 83 % 84 % 0 % 1025,1 hPa 0,0 l/m 0,2 km/h (0 Bft) S 180 0 min -1,7 C 0,6 C 3,2 km/h (1 Bft)
20.04.2015 03:55 0,8 C 20,6 C 1,9 C 0,7 C 0,5 C 0,0 C 83 % 84 % 0 % 1025,1 hPa 0,0 l/m 0,3 km/h (0 Bft) S-SW 202 0 min -1,8 C 0,5 C 2,4 km/h (1 Bft)
20.04.2015 04:00 0,8 C 20,6 C 1,9 C 0,7 C 0,5 C 0,0 C 83 % 84 % 0 % 1025,2 hPa 0,0 l/m 0,6 km/h (0 Bft) S 180 0 min -1,8 C 0,5 C 0,0 km/h (0 Bft)
20.04.2015 04:05 0,9 C 20,5 C 1,8 C 0,8 C 0,5 C 0,0 C 83 % 84 % 0 % 1025,2 hPa 0,0 l/m 0,5 km/h (0 Bft) SW 225 0 min -1,7 C 0,5 C 0,0 km/h (0 Bft)
20.04.2015 04:10 0,9 C 20,6 C 1,9 C 0,8 C 0,5 C 0,0 C 83 % 85 % 0 % 1025,2 hPa 0,0 l/m 0,3 km/h (0 Bft) S 180 0 min -1,7 C 0,5 C 0,0 km/h (0 Bft)
20.04.2015 04:15 0,8 C 20,5 C 1,6 C 0,7 C 0,4 C 0,0 C 83 % 85 % 0 % 1025,2 hPa 0,0 l/m 0,3 km/h (0 Bft) W-SW 247 0 min -1,8 C 0,4 C 0,0 km/h (0 Bft)
20.04.2015 04:20 0,9 C 20,5 C 1,7 C 0,7 C 0,2 C 0,0 C 83 % 85 % 0 % 1025,1 hPa 0,0 l/m 0,0 km/h (0 Bft) SW 225 0 min -1,7 C 0,2 C 0,0 km/h (0 Bft)
20.04.2015 04:25 0,8 C 20,5 C 1,6 C 0,6 C 0,3 C 0,0 C 83 % 85 % 0 % 1025,1 hPa 0,0 l/m 0,0 km/h (0 Bft) O 90 0 min -1,8 C 0,3 C 0,0 km/h (0 Bft)
20.04.2015 04:30 0,8 C 20,4 C 1,5 C 0,6 C 0,2 C 0,0 C 83 % 85 % 0 % 1025,1 hPa 0,0 l/m 0,0 km/h (0 Bft) O-NO 67 0 min -1,8 C 0,2 C 0,0 km/h (0 Bft)
20.04.2015 04:35 0,8 C 20,4 C 1,5 C 0,6 C 0,3 C 0,0 C 83 % 85 % 0 % 1025,1 hPa 0,0 l/m 0,0 km/h (0 Bft) NO 45 0 min -1,8 C 0,3 C 0,0 km/h (0 Bft)
20.04.2015 04:40 0,9 C 20,4 C 1,5 C 0,7 C 0,3 C 0,0 C 83 % 85 % 0 % 1025,0 hPa 0,0 l/m 0,0 km/h (0 Bft) NO 45 0 min -1,7 C 0,3 C 0,0 km/h (0 Bft)
20.04.2015 04:45 0,9 C 20,5 C 1,6 C 0,7 C 0,3 C 0,0 C 83 % 86 % 0 % 1025,0 hPa 0,0 l/m 0,0 km/h (0 Bft) O 90 0 min -1,7 C 0,3 C 0,0 km/h (0 Bft)
20.04.2015 04:50 0,9 C 20,4 C 1,6 C 0,7 C 0,4 C 0,0 C 84 % 86 % 0 % 1025,0 hPa 0,0 l/m 0,0 km/h (0 Bft) SO 135 0 min -1,5 C 0,4 C 0,0 km/h (0 Bft)
20.04.2015 04:55 1,0 C 20,4 C 1,5 C 0,8 C 0,5 C 0,0 C 84 % 86 % 0 % 1025,0 hPa 0,0 l/m 0,0 km/h (0 Bft) NO 45 0 min -1,4 C 0,5 C 0,0 km/h (0 Bft)
20.04.2015 05:00 1,1 C 20,4 C 1,5 C 0,9 C 0,6 C 0,0 C 84 % 86 % 0 % 1025,0 hPa 0,0 l/m 0,0 km/h (0 Bft) NO 45 0 min -1,3 C 0,6 C 0,0 km/h (0 Bft)
20.04.2015 05:05 1,1 C 20,4 C 1,3 C 0,9 C 0,5 C 0,0 C 83 % 86 % 0 % 1025,0 hPa 0,0 l/m 0,0 km/h (0 Bft) O-SO 112 0 min -1,5 C 0,5 C 0,0 km/h (0 Bft)
20.04.2015 05:10 1,0 C 20,4 C 1,2 C 0,8 C 0,5 C 0,0 C 83 % 85 % 0 % 1025,0 hPa 0,0 l/m 0,0 km/h (0 Bft) O 90 0 min -1,6 C 0,5 C 0,0 km/h (0 Bft)
20.04.2015 05:15 0,9 C 20,4 C 1,3 C 0,7 C 0,4 C 0,0 C 83 % 86 % 0 % 1025,0 hPa 0,0 l/m 0,0 km/h (0 Bft) O-SO 112 0 min -1,7 C 0,4 C 0,0 km/h (0 Bft)
20.04.2015 05:20 0,9 C 20,4 C 1,2 C 0,7 C 0,4 C 0,0 C 83 % 86 % 0 % 1025,1 hPa 0,0 l/m 0,0 km/h (0 Bft) O-SO 112 0 min -1,7 C 0,4 C 0,0 km/h (0 Bft)
20.04.2015 05:25 0,9 C 20,4 C 1,2 C 0,7 C 0,4 C 0,0 C 83 % 86 % 0 % 1025,1 hPa 0,0 l/m 0,0 km/h (0 Bft) O-SO 112 0 min -1,7 C 0,4 C 0,0 km/h (0 Bft)
20.04.2015 05:30 0,9 C 20,4 C 1,1 C 0,7 C 0,3 C 0,0 C 83 % 86 % 0 % 1025,1 hPa 0,0 l/m 0,0 km/h (0 Bft) O-SO 112 0 min -1,7 C 0,3 C 0,0 km/h (0 Bft)
20.04.2015 05:35 0,8 C 20,3 C 1,1 C 0,6 C 0,2 C 0,0 C 83 % 86 % 0 % 1025,1 hPa 0,0 l/m 0,0 km/h (0 Bft) N-NW 337 0 min -1,8 C 0,2 C 0,0 km/h (0 Bft)
20.04.2015 05:40 0,8 C 20,3 C 1,1 C 0,6 C 0,2 C 0,0 C 83 % 86 % 0 % 1024,9 hPa 0,0 l/m 0,5 km/h (0 Bft) S 180 0 min -1,8 C 0,2 C 2,9 km/h (1 Bft)
20.04.2015 05:45 0,8 C 20,3 C 1,3 C 0,6 C 0,2 C 0,0 C 84 % 86 % 0 % 1024,9 hPa 0,0 l/m 1,6 km/h (1 Bft) S-SW 202 0 min -1,6 C 0,2 C 4,2 km/h (1 Bft)
20.04.2015 05:50 0,8 C 20,3 C 1,3 C 0,6 C 0,2 C 0,0 C 83 % 87 % 0 % 1024,9 hPa 0,0 l/m 1,6 km/h (1 Bft) W-SW 247 0 min -1,8 C 0,2 C 0,0 km/h (0 Bft)
20.04.2015 05:55 0,6 C 20,3 C 1,1 C 0,4 C 0,0 C 0,0 C 83 % 86 % 0 % 1024,9 hPa 0,0 l/m 0,5 km/h (0 Bft) O-NO 67 0 min -1,9 C 0,0 C 0,0 km/h (0 Bft)
20.04.2015 06:00 0,7 C 20,3 C 1,1 C 0,5 C 0,0 C 0,0 C 83 % 86 % 0 % 1024,9 hPa 0,0 l/m 0,0 km/h (0 Bft) O-SO 112 0 min -1,8 C 0,0 C 0,0 km/h (0 Bft)
20.04.2015 06:05 0,7 C 20,3 C 0,9 C 0,5 C 0,0 C 0,0 C 83 % 86 % 0 % 1024,9 hPa 0,0 l/m 0,0 km/h (0 Bft) O-SO 112 0 min -1,8 C 0,0 C 0,0 km/h (0 Bft)
20.04.2015 06:10 0,5 C 20,3 C 0,8 C 0,3 C 0,0 C 0,0 C 84 % 86 % 0 % 1024,9 hPa 0,0 l/m 0,0 km/h (0 Bft) O-NO 67 0 min -1,9 C 0,0 C 0,0 km/h (0 Bft)
20.04.2015 06:15 0,6 C 20,3 C 1,0 C 0,5 C 0,2 C 0,0 C 84 % 87 % 0 % 1024,9 hPa 0,0 l/m 0,3 km/h (0 Bft) O-NO 67 0 min -1,8 C 0,2 C 1,6 km/h (1 Bft)
20.04.2015 06:20 0,5 C 20,3 C 1,1 C 0,4 C 0,3 C 0,0 C 84 % 87 % 0 % 1025,4 hPa 0,0 l/m 0,8 km/h (0 Bft) O-NO 67 0 min -1,9 C 0,3 C 1,9 km/h (1 Bft)
20.04.2015 06:25 0,4 C 20,3 C 1,1 C 0,4 C 0,3 C 0,0 C 84 % 87 % 0 % 1025,4 hPa 0,0 l/m 0,6 km/h (0 Bft) O-SO 112 0 min -2,0 C 0,3 C 0,0 km/h (0 Bft)
20.04.2015 06:30 0,5 C 20,2 C 1,1 C 0,4 C 0,3 C 0,0 C 84 % 87 % 0 % 1025,4 hPa 0,0 l/m 0,2 km/h (0 Bft) O-NO 67 0 min -1,9 C 0,3 C 0,0 km/h (0 Bft)
20.04.2015 06:35 0,4 C 20,2 C 1,1 C 0,4 C 0,4 C 0,0 C 84 % 87 % 0 % 1025,4 hPa 0,0 l/m 0,0 km/h (0 Bft) N-NO 22 0 min -2,0 C 0,4 C 0,0 km/h (0 Bft)
20.04.2015 06:40 0,4 C 20,2 C 1,1 C 0,4 C 0,3 C 0,0 C 84 % 87 % 0 % 1025,2 hPa 0,0 l/m 0,0 km/h (0 Bft) O-NO 67 0 min -2,0 C 0,3 C 0,0 km/h (0 Bft)
20.04.2015 06:45 0,4 C 20,1 C 1,5 C 0,4 C 0,3 C 0,0 C 84 % 87 % 0 % 1025,2 hPa 0,0 l/m 0,0 km/h (0 Bft) O-NO 67 0 min -2,0 C 0,3 C 0,0 km/h (0 Bft)
20.04.2015 06:50 0,4 C 20,1 C 1,9 C 0,4 C 0,4 C 0,0 C 84 % 87 % 0 % 1025,2 hPa 0,0 l/m 0,0 km/h (0 Bft) O-SO 112 0 min -2,0 C 0,4 C 0,0 km/h (0 Bft)
20.04.2015 06:55 0,4 C 20,0 C 2,4 C 0,6 C 0,6 C 0,2 C 84 % 87 % 5 % 1025,2 hPa 0,0 l/m 0,0 km/h (0 Bft) O-NO 67 0 min -2,0 C 0,6 C 0,0 km/h (0 Bft)
20.04.2015 07:00 0,5 C 20,0 C 2,8 C 1,1 C 1,1 C 0,6 C 85 % 87 % 16 % 1025,3 hPa 0,0 l/m 0,0 km/h (0 Bft) O-SO 112 0 min -1,7 C 1,1 C 0,0 km/h (0 Bft)
20.04.2015 07:05 0,8 C 19,8 C 3,4 C 3,6 C 3,6 C 2,8 C 85 % 87 % 74 % 1025,3 hPa 0,0 l/m 0,0 km/h (0 Bft) N-NW 337 5 min -1,4 C 3,6 C 0,0 km/h (0 Bft)
20.04.2015 07:10 1,1 C 19,8 C 3,6 C 5,5 C 5,5 C 4,4 C 85 % 86 % 100 % 1025,3 hPa 0,0 l/m 0,0 km/h (0 Bft) O-NO 67 5 min -1,1 C 5,5 C 0,0 km/h (0 Bft)
20.04.2015 07:15 1,6 C 19,7 C 4,1 C 7,4 C 7,4 C 5,8 C 86 % 85 % 100 % 1025,3 hPa 0,0 l/m 0,0 km/h (0 Bft) O-SO 112 5 min -0,5 C 7,4 C 0,0 km/h (0 Bft)
20.04.2015 07:20 2,1 C 19,7 C 4,4 C 8,4 C 8,4 C 6,3 C 86 % 85 % 100 % 1025,6 hPa 0,0 l/m 0,0 km/h (0 Bft) NO 45 5 min 0,0 C 8,4 C 0,0 km/h (0 Bft)
20.04.2015 07:25 2,5 C 19,7 C 4,8 C 9,1 C 9,1 C 6,6 C 85 % 84 % 100 % 1025,6 hPa 0,0 l/m 0,2 km/h (0 Bft) S 180 5 min 0,2 C 9,1 C 2,9 km/h (1 Bft)
20.04.2015 07:30 2,4 C 19,6 C 5,1 C 9,6 C 9,6 C 7,2 C 84 % 84 % 100 % 1025,6 hPa 0,0 l/m 0,8 km/h (0 Bft) S 180 5 min -0,0 C 9,6 C 3,5 km/h (1 Bft)
20.04.2015 07:35 2,5 C 19,6 C 5,3 C 10,2 C 10,2 C 7,7 C 83 % 82 % 100 % 1025,6 hPa 0,0 l/m 1,8 km/h (1 Bft) S 180 5 min -0,1 C 10,2 C 4,2 km/h (1 Bft)
20.04.2015 07:40 2,5 C 19,6 C 5,6 C 10,6 C 10,6 C 8,1 C 83 % 82 % 100 % 1025,6 hPa 0,0 l/m 1,1 km/h (1 Bft) W-SW 247 5 min -0,1 C 10,6 C 0,0 km/h (0 Bft)
20.04.2015 07:45 3,0 C 19,6 C 6,1 C 12,1 C 12,1 C 9,1 C 84 % 81 % 100 % 1025,6 hPa 0,0 l/m 0,3 km/h (0 Bft) SW 225 5 min 0,6 C 12,1 C 0,0 km/h (0 Bft)
20.04.2015 07:50 3,3 C 19,6 C 6,3 C 12,7 C 12,7 C 9,4 C 83 % 81 % 100 % 1025,6 hPa 0,0 l/m 0,3 km/h (0 Bft) S 180 5 min 0,7 C 12,7 C 2,4 km/h (1 Bft)
20.04.2015 07:55 3,6 C 19,6 C 6,6 C 13,2 C 13,2 C 9,6 C 82 % 79 % 100 % 1025,6 hPa 0,0 l/m 0,8 km/h (0 Bft) S 180 5 min 0,8 C 13,2 C 4,7 km/h (1 Bft)
20.04.2015 08:00 3,7 C 19,5 C 6,9 C 13,2 C 13,2 C 9,5 C 81 % 79 % 100 % 1026,0 hPa 0,0 l/m 1,4 km/h (1 Bft) S 180 5 min 0,7 C 13,2 C 3,9 km/h (1 Bft)
20.04.2015 08:05 4,0 C 19,5 C 7,2 C 13,8 C 13,8 C 9,8 C 81 % 79 % 100 % 1026,0 hPa 0,0 l/m 1,4 km/h (1 Bft) S 180 5 min 1,0 C 13,8 C 4,8 km/h (1 Bft)
20.04.2015 08:10 4,3 C 19,5 C 7,4 C 14,4 C 14,4 C 10,1 C 80 % 78 % 100 % 1026,0 hPa 0,0 l/m 1,0 km/h (0 Bft) N-NO 22 5 min 1,2 C 14,4 C 2,1 km/h (1 Bft)
20.04.2015 08:15 4,7 C 19,5 C 7,7 C 14,2 C 14,2 C 9,5 C 79 % 76 % 100 % 1026,0 hPa 0,0 l/m 1,9 km/h (1 Bft) SW 225 5 min 1,4 C 14,2 C 5,0 km/h (1 Bft)
20.04.2015 08:20 4,8 C 19,5 C 7,9 C 13,9 C 13,9 C 9,1 C 79 % 76 % 100 % 1025,9 hPa 0,0 l/m 3,1 km/h (1 Bft) W-SW 247 5 min 1,5 C 13,9 C 5,0 km/h (1 Bft)
20.04.2015 08:25 5,2 C 19,5 C 8,1 C 14,4 C 14,4 C 9,2 C 78 % 76 % 100 % 1025,9 hPa 0,0 l/m 3,1 km/h (1 Bft) N-NW 337 5 min 1,7 C 14,4 C 9,3 km/h (2 Bft)
20.04.2015 08:30 5,3 C 19,5 C 8,1 C 14,0 C 14,0 C 8,7 C 77 % 75 % 100 % 1025,9 hPa 0,0 l/m 3,5 km/h (1 Bft) W-SW 247 5 min 1,6 C 14,0 C 3,7 km/h (1 Bft)
20.04.2015 08:35 5,6 C 19,5 C 8,3 C 14,4 C 14,4 C 8,8 C 78 % 75 % 100 % 1025,9 hPa 0,0 l/m 3,9 km/h (1 Bft) W-SW 247 5 min 2,1 C 14,4 C 8,2 km/h (2 Bft)
20.04.2015 08:40 5,9 C 19,5 C 8,0 C 14,1 C 14,1 C 8,2 C 77 % 74 % 100 % 1026,1 hPa 0,0 l/m 3,9 km/h (1 Bft) W-SW 247 5 min 2,2 C 14,1 C 5,8 km/h (2 Bft)
20.04.2015 08:45 6,0 C 19,5 C 7,9 C 14,2 C 14,2 C 8,2 C 77 % 74 % 100 % 1026,1 hPa 0,0 l/m 4,0 km/h (1 Bft) SW 225 5 min 2,3 C 14,2 C 1,8 km/h (1 Bft)
20.04.2015 08:50 6,2 C 19,5 C 7,9 C 15,0 C 15,0 C 8,8 C 77 % 75 % 100 % 1026,1 hPa 0,0 l/m 3,1 km/h (1 Bft) SW 225 5 min 2,5 C 15,0 C 2,1 km/h (1 Bft)
20.04.2015 08:55 6,7 C 19,5 C 7,9 C 15,5 C 15,5 C 8,8 C 76 % 75 % 100 % 1026,1 hPa 0,0 l/m 2,9 km/h (1 Bft) SW 225 5 min 2,8 C 15,5 C 4,5 km/h (1 Bft)
20.04.2015 09:00 6,8 C 19,5 C 7,9 C 15,5 C 15,5 C 8,7 C 75 % 75 % 100 % 1026,2 hPa 0,0 l/m 3,7 km/h (1 Bft) SW 225 5 min 2,7 C 15,5 C 4,7 km/h (1 Bft)
20.04.2015 09:05 7,1 C 19,4 C 7,8 C 15,5 C 15,5 C 8,4 C 75 % 75 % 100 % 1026,2 hPa 0,0 l/m 4,0 km/h (1 Bft) S 180 5 min 3,0 C 15,5 C 4,8 km/h (1 Bft)
20.04.2015 09:10 7,3 C 19,5 C 8,0 C 15,4 C 15,4 C 8,1 C 74 % 75 % 100 % 1026,2 hPa 0,0 l/m 4,2 km/h (1 Bft) W 270 5 min 3,0 C 15,4 C 4,3 km/h (1 Bft)
20.04.2015 09:15 7,5 C 19,4 C 8,0 C 15,3 C 15,3 C 7,8 C 74 % 75 % 100 % 1026,2 hPa 0,0 l/m 4,0 km/h (1 Bft) SW 225 5 min 3,2 C 15,3 C 4,8 km/h (1 Bft)
20.04.2015 09:20 7,7 C 19,4 C 8,3 C 14,5 C 14,5 C 6,8 C 73 % 75 % 100 % 1026,4 hPa 0,0 l/m 4,2 km/h (1 Bft) W 270 5 min 3,2 C 14,5 C 5,0 km/h (1 Bft)
20.04.2015 09:25 8,1 C 19,4 C 8,4 C 14,1 C 14,1 C 6,0 C 72 % 74 % 100 % 1026,4 hPa 0,0 l/m 4,0 km/h (1 Bft) S-SO 157 5 min 3,4 C 14,1 C 6,1 km/h (2 Bft)
20.04.2015 09:30 8,3 C 19,4 C 8,5 C 13,9 C 13,9 C 5,6 C 72 % 74 % 100 % 1026,4 hPa 0,0 l/m 3,7 km/h (1 Bft) W-SW 247 5 min 3,6 C 13,9 C 4,2 km/h (1 Bft)
20.04.2015 09:35 8,4 C 19,4 C 8,7 C 13,8 C 13,8 C 5,4 C 72 % 74 % 100 % 1026,4 hPa 0,0 l/m 3,7 km/h (1 Bft) SW 225 5 min 3,7 C 13,8 C 5,3 km/h (1 Bft)
20.04.2015 09:40 8,6 C 19,4 C 8,9 C 13,3 C 13,3 C 4,7 C 71 % 75 % 100 % 1026,4 hPa 0,0 l/m 4,0 km/h (1 Bft) S 180 5 min 3,6 C 13,3 C 8,7 km/h (2 Bft)
20.04.2015 09:45 8,8 C 19,4 C 9,3 C 13,3 C 13,3 C 4,5 C 71 % 74 % 100 % 1026,4 hPa 0,0 l/m 4,3 km/h (1 Bft) W-SW 247 5 min 3,8 C 13,3 C 9,0 km/h (2 Bft)
20.04.2015 09:50 8,9 C 19,4 C 9,8 C 13,5 C 13,5 C 4,6 C 71 % 73 % 100 % 1026,4 hPa 0,0 l/m 4,2 km/h (1 Bft) S 180 5 min 3,9 C 13,5 C 3,4 km/h (1 Bft)
20.04.2015 09:55 9,2 C 19,4 C 10,2 C 13,5 C 13,5 C 4,3 C 71 % 72 % 100 % 1026,4 hPa 0,0 l/m 3,7 km/h (1 Bft) W-SW 247 5 min 4,2 C 13,5 C 8,5 km/h (2 Bft)
20.04.2015 10:00 9,3 C 19,5 C 10,3 C 13,5 C 13,5 C 4,2 C 70 % 71 % 100 % 1026,4 hPa 0,0 l/m 3,7 km/h (1 Bft) S-SW 202 5 min 4,1 C 13,5 C 3,5 km/h (1 Bft)
20.04.2015 10:05 9,5 C 19,5 C 10,3 C 13,7 C 13,7 C 4,2 C 69 % 70 % 100 % 1026,4 hPa 0,0 l/m 3,9 km/h (1 Bft) W-SW 247 5 min 4,1 C 13,7 C 9,7 km/h (2 Bft)
20.04.2015 10:10 9,7 C 19,5 C 10,5 C 14,1 C 14,1 C 4,4 C 68 % 70 % 100 % 1026,4 hPa 0,0 l/m 4,2 km/h (1 Bft) W-SW 247 5 min 4,1 C 14,1 C 4,7 km/h (1 Bft)
20.04.2015 10:15 9,9 C 19,5 C 11,1 C 14,6 C 14,6 C 4,7 C 69 % 69 % 100 % 1026,4 hPa 0,0 l/m 4,2 km/h (1 Bft) W-SW 247 5 min 4,5 C 14,6 C 12,2 km/h (2 Bft)
20.04.2015 10:20 10,0 C 19,5 C 11,5 C 14,7 C 14,7 C 4,7 C 69 % 68 % 100 % 1026,6 hPa 0,0 l/m 4,0 km/h (1 Bft) S 180 5 min 4,6 C 14,7 C 2,6 km/h (1 Bft)
20.04.2015 10:25 10,3 C 19,5 C 11,9 C 14,3 C 14,3 C 4,0 C 68 % 67 % 100 % 1026,6 hPa 0,0 l/m 4,5 km/h (1 Bft) SW 225 5 min 4,7 C 14,3 C 7,4 km/h (2 Bft)
20.04.2015 10:30 10,3 C 19,5 C 11,9 C 14,1 C 14,1 C 3,8 C 67 % 66 % 100 % 1026,6 hPa 0,0 l/m 5,0 km/h (1 Bft) W-SW 247 5 min 4,4 C 14,1 C 9,3 km/h (2 Bft)
20.04.2015 10:35 10,4 C 19,5 C 11,9 C 14,2 C 14,2 C 3,8 C 68 % 66 % 100 % 1026,6 hPa 0,0 l/m 4,5 km/h (1 Bft) W 270 5 min 4,8 C 14,2 C 5,3 km/h (1 Bft)
20.04.2015 10:40 10,7 C 19,5 C 12,1 C 14,2 C 14,2 C 3,5 C 66 % 65 % 92 % 1026,6 hPa 0,0 l/m 4,3 km/h (1 Bft) W-SW 247 5 min 4,6 C 14,2 C 5,1 km/h (1 Bft)
20.04.2015 10:45 10,8 C 19,5 C 12,4 C 14,2 C 14,2 C 3,4 C 66 % 65 % 89 % 1026,6 hPa 0,0 l/m 5,3 km/h (1 Bft) W-SW 247 5 min 4,7 C 14,2 C 4,5 km/h (1 Bft)
20.04.2015 10:50 10,9 C 19,5 C 13,2 C 14,1 C 14,1 C 3,2 C 64 % 62 % 84 % 1026,6 hPa 0,0 l/m 6,4 km/h (2 Bft) W-SW 247 0 min 4,4 C 14,1 C 12,1 km/h (2 Bft)
20.04.2015 10:55 10,9 C 19,5 C 13,9 C 13,4 C 12,8 C 2,5 C 63 % 60 % 66 % 1026,6 hPa 0,0 l/m 7,9 km/h (2 Bft) S 180 0 min 4,1 C 12,8 C 17,7 km/h (3 Bft)
20.04.2015 11:00 11,1 C 19,5 C 14,3 C 13,2 C 13,2 C 2,1 C 63 % 58 % 55 % 1026,7 hPa 0,0 l/m 6,8 km/h (2 Bft) NW 315 0 min 4,3 C 13,2 C 5,8 km/h (2 Bft)
20.04.2015 11:05 11,4 C 19,5 C 14,9 C 14,2 C 14,2 C 2,8 C 63 % 58 % 74 % 1026,7 hPa 0,0 l/m 3,9 km/h (1 Bft) O-NO 67 0 min 4,6 C 14,2 C 1,9 km/h (1 Bft)
20.04.2015 11:10 11,5 C 19,5 C 14,9 C 14,9 C 14,9 C 3,4 C 61 % 56 % 89 % 1026,7 hPa 0,0 l/m 4,5 km/h (1 Bft) W-SW 247 5 min 4,2 C 14,9 C 11,1 km/h (2 Bft)
20.04.2015 11:15 11,4 C 19,5 C 15,5 C 14,7 C 14,7 C 3,3 C 60 % 54 % 87 % 1026,7 hPa 0,0 l/m 7,2 km/h (2 Bft) SW 225 5 min 3,9 C 14,7 C 10,1 km/h (2 Bft)
20.04.2015 11:20 11,6 C 19,5 C 15,6 C 14,8 C 14,8 C 3,2 C 60 % 53 % 84 % 1026,9 hPa 0,0 l/m 7,2 km/h (2 Bft) N-NO 22 0 min 4,1 C 14,8 C 11,7 km/h (2 Bft)
20.04.2015 11:25 11,9 C 19,5 C 16,1 C 15,1 C 15,1 C 3,2 C 60 % 53 % 84 % 1026,9 hPa 0,0 l/m 5,5 km/h (1 Bft) W-SW 247 0 min 4,4 C 15,1 C 6,8 km/h (2 Bft)
20.04.2015 11:30 12,0 C 19,5 C 16,7 C 15,0 C 15,0 C 3,0 C 59 % 52 % 79 % 1026,9 hPa 0,0 l/m 5,3 km/h (1 Bft) W 270 0 min 4,2 C 15,0 C 12,2 km/h (2 Bft)
20.04.2015 11:35 12,1 C 19,6 C 17,3 C 14,7 C 14,7 C 2,6 C 59 % 50 % 68 % 1026,9 hPa 0,0 l/m 6,4 km/h (2 Bft) W 270 0 min 4,3 C 14,7 C 10,0 km/h (2 Bft)
20.04.2015 11:40 12,1 C 19,6 C 17,6 C 14,1 C 14,1 C 2,0 C 58 % 49 % 53 % 1026,8 hPa 0,0 l/m 7,2 km/h (2 Bft) W 270 0 min 4,1 C 14,1 C 6,0 km/h (2 Bft)
20.04.2015 11:45 12,3 C 19,6 C 18,0 C 14,5 C 14,5 C 2,2 C 56 % 47 % 58 % 1026,8 hPa 0,0 l/m 6,3 km/h (2 Bft) S-SO 157 0 min 3,8 C 14,5 C 6,6 km/h (2 Bft)
20.04.2015 11:50 12,5 C 19,7 C 18,7 C 15,2 C 15,2 C 2,7 C 55 % 46 % 71 % 1026,8 hPa 0,0 l/m 5,8 km/h (2 Bft) W-SW 247 0 min 3,7 C 15,2 C 6,6 km/h (2 Bft)
20.04.2015 11:55 12,7 C 19,7 C 18,7 C 15,8 C 15,8 C 3,1 C 57 % 46 % 82 % 1026,8 hPa 0,0 l/m 4,7 km/h (1 Bft) SW 225 0 min 4,4 C 15,8 C 3,1 km/h (1 Bft)
20.04.2015 12:00 12,9 C 19,7 C 18,6 C 15,8 C 15,8 C 2,9 C 54 % 44 % 76 % 1026,6 hPa 0,0 l/m 4,8 km/h (1 Bft) NO 45 0 min 3,8 C 15,8 C 5,5 km/h (1 Bft)
20.04.2015 12:05 13,1 C 19,7 C 18,1 C 15,4 C 15,4 C 2,3 C 53 % 45 % 61 % 1026,6 hPa 0,0 l/m 5,3 km/h (1 Bft) S 180 0 min 3,7 C 15,4 C 17,5 km/h (3 Bft)
20.04.2015 12:10 13,1 C 19,7 C 18,3 C 15,4 C 15,4 C 2,3 C 54 % 46 % 61 % 1026,6 hPa 0,0 l/m 6,0 km/h (2 Bft) W-SW 247 0 min 4,0 C 15,4 C 10,9 km/h (2 Bft)
20.04.2015 12:15 13,4 C 19,7 C 18,8 C 16,2 C 16,2 C 2,8 C 54 % 46 % 74 % 1026,6 hPa 0,0 l/m 5,8 km/h (2 Bft) W 270 0 min 4,3 C 16,2 C 18,3 km/h (3 Bft)
20.04.2015 12:20 13,5 C 19,7 C 19,1 C 16,7 C 16,7 C 3,2 C 53 % 44 % 84 % 1026,5 hPa 0,0 l/m 6,4 km/h (2 Bft) W 270 0 min 4,1 C 16,7 C 8,7 km/h (2 Bft)
20.04.2015 12:25 13,6 C 19,8 C 19,0 C 17,5 C 17,5 C 3,9 C 53 % 44 % 100 % 1026,5 hPa 0,0 l/m 7,4 km/h (2 Bft) S 180 5 min 4,2 C 17,5 C 8,7 km/h (2 Bft)
20.04.2015 12:30 14,0 C 19,8 C 19,3 C 18,4 C 18,4 C 4,4 C 53 % 43 % 100 % 1026,5 hPa 0,0 l/m 6,1 km/h (2 Bft) NW 315 5 min 4,6 C 18,4 C 11,6 km/h (2 Bft)
20.04.2015 12:35 14,4 C 19,8 C 19,7 C 19,3 C 19,3 C 4,9 C 52 % 43 % 100 % 1026,5 hPa 0,0 l/m 4,3 km/h (1 Bft) S-SO 157 5 min 4,7 C 19,3 C 4,3 km/h (1 Bft)
20.04.2015 12:40 14,6 C 19,8 C 19,9 C 20,0 C 20,0 C 5,4 C 51 % 43 % 100 % 1026,5 hPa 0,0 l/m 3,9 km/h (1 Bft) W-SW 247 5 min 4,6 C 20,0 C 8,9 km/h (2 Bft)
20.04.2015 12:45 14,6 C 19,8 C 20,1 C 20,2 C 20,2 C 5,6 C 49 % 41 % 100 % 1026,5 hPa 0,0 l/m 4,5 km/h (1 Bft) S 180 5 min 4,0 C 20,2 C 5,0 km/h (1 Bft)
20.04.2015 12:50 14,7 C 19,8 C 19,9 C 19,8 C 19,8 C 5,1 C 49 % 41 % 100 % 1026,5 hPa 0,0 l/m 6,6 km/h (2 Bft) W 270 5 min 4,1 C 19,8 C 10,8 km/h (2 Bft)
20.04.2015 12:55 14,9 C 19,8 C 20,0 C 19,8 C 19,8 C 4,9 C 48 % 42 % 100 % 1026,5 hPa 0,0 l/m 6,8 km/h (2 Bft) S 180 5 min 4,0 C 19,8 C 10,8 km/h (2 Bft)
20.04.2015 13:00 14,8 C 19,9 C 20,4 C 19,9 C 19,9 C 5,1 C 49 % 42 % 100 % 1026,1 hPa 0,0 l/m 5,6 km/h (1 Bft) S-SW 202 5 min 4,2 C 19,9 C 8,2 km/h (2 Bft)
20.04.2015 13:05 14,9 C 20,0 C 20,3 C 19,8 C 19,8 C 4,9 C 49 % 41 % 100 % 1026,1 hPa 0,0 l/m 6,0 km/h (2 Bft) SW 225 5 min 4,3 C 19,8 C 9,5 km/h (2 Bft)
20.04.2015 13:10 15,0 C 20,0 C 20,3 C 19,7 C 19,7 C 4,7 C 48 % 41 % 100 % 1026,1 hPa 0,0 l/m 7,1 km/h (2 Bft) SW 225 5 min 4,1 C 19,7 C 8,7 km/h (2 Bft)
20.04.2015 13:15 15,0 C 20,0 C 20,5 C 19,5 C 19,5 C 4,5 C 48 % 40 % 100 % 1026,1 hPa 0,0 l/m 7,7 km/h (2 Bft) W-SW 247 5 min 4,1 C 19,5 C 17,4 km/h (3 Bft)
20.04.2015 13:20 15,1 C 19,9 C 20,5 C 19,4 C 19,4 C 4,3 C 48 % 41 % 100 % 1025,9 hPa 0,0 l/m 7,6 km/h (2 Bft) W 270 5 min 4,2 C 19,4 C 11,4 km/h (2 Bft)
20.04.2015 13:25 15,5 C 20,0 C 21,1 C 20,0 C 20,0 C 4,5 C 50 % 41 % 100 % 1025,9 hPa 0,0 l/m 6,1 km/h (2 Bft) W 270 5 min 5,1 C 20,0 C 2,6 km/h (1 Bft)
20.04.2015 13:30 15,6 C 20,0 C 20,8 C 20,4 C 20,4 C 4,8 C 47 % 40 % 100 % 1025,9 hPa 0,0 l/m 5,6 km/h (1 Bft) W-SW 247 5 min 4,3 C 20,4 C 5,8 km/h (2 Bft)
20.04.2015 13:35 15,7 C 20,0 C 21,0 C 20,8 C 20,8 C 5,1 C 49 % 41 % 100 % 1025,9 hPa 0,0 l/m 4,5 km/h (1 Bft) W-SW 247 5 min 5,0 C 20,8 C 3,5 km/h (1 Bft)
20.04.2015 13:40 16,3 C 20,1 C 21,3 C 21,2 C 21,2 C 4,9 C 49 % 41 % 100 % 1025,8 hPa 0,0 l/m 3,7 km/h (1 Bft) NW 315 5 min 5,6 C 21,2 C 4,2 km/h (1 Bft)
20.04.2015 13:45 16,4 C 20,1 C 21,5 C 21,5 C 21,5 C 5,1 C 48 % 40 % 100 % 1025,8 hPa 0,0 l/m 4,7 km/h (1 Bft) SO 135 5 min 5,4 C 21,5 C 2,9 km/h (1 Bft)
20.04.2015 13:50 16,4 C 20,1 C 21,6 C 21,7 C 21,7 C 5,3 C 48 % 40 % 100 % 1025,8 hPa 0,0 l/m 4,5 km/h (1 Bft) W 270 5 min 5,4 C 21,7 C 5,3 km/h (1 Bft)
20.04.2015 13:55 16,4 C 20,2 C 21,7 C 21,5 C 21,5 C 5,1 C 48 % 40 % 100 % 1025,8 hPa 0,0 l/m 4,7 km/h (1 Bft) O-SO 112 5 min 5,4 C 21,5 C 5,5 km/h (1 Bft)
20.04.2015 14:00 16,5 C 20,2 C 21,9 C 21,2 C 21,2 C 4,7 C 47 % 40 % 100 % 1026,1 hPa 0,0 l/m 6,3 km/h (2 Bft) W-SW 247 5 min 5,2 C 21,2 C 16,3 km/h (3 Bft)
20.04.2015 14:05 16,4 C 20,2 C 22,1 C 20,7 C 20,7 C 4,3 C 47 % 39 % 100 % 1026,1 hPa 0,0 l/m 7,1 km/h (2 Bft) NW 315 5 min 5,1 C 20,7 C 11,1 km/h (2 Bft)
20.04.2015 14:10 16,2 C 20,2 C 21,4 C 20,5 C 20,5 C 4,3 C 47 % 39 % 100 % 1026,1 hPa 0,0 l/m 8,2 km/h (2 Bft) W 270 5 min 4,9 C 20,5 C 16,1 km/h (3 Bft)
20.04.2015 14:15 16,1 C 20,3 C 20,6 C 20,0 C 20,0 C 3,9 C 48 % 41 % 100 % 1026,1 hPa 0,0 l/m 9,0 km/h (2 Bft) S-SW 202 5 min 5,1 C 20,0 C 8,7 km/h (2 Bft)
20.04.2015 14:20 16,3 C 20,3 C 20,4 C 20,0 C 20,0 C 3,7 C 48 % 42 % 97 % 1025,9 hPa 0,0 l/m 9,0 km/h (2 Bft) W-SW 247 5 min 5,3 C 20,0 C 6,8 km/h (2 Bft)
20.04.2015 14:25 16,5 C 20,3 C 20,5 C 20,2 C 20,2 C 3,7 C 47 % 41 % 97 % 1025,9 hPa 0,0 l/m 8,0 km/h (2 Bft) W-SW 247 5 min 5,2 C 20,2 C 21,1 km/h (4 Bft)
20.04.2015 14:30 16,4 C 20,3 C 20,8 C 20,4 C 20,4 C 4,0 C 47 % 41 % 100 % 1025,9 hPa 0,0 l/m 8,0 km/h (2 Bft) W-SW 247 5 min 5,1 C 20,4 C 10,6 km/h (2 Bft)
20.04.2015 14:35 16,7 C 20,4 C 21,5 C 20,7 C 20,7 C 4,0 C 47 % 41 % 100 % 1025,9 hPa 0,0 l/m 6,9 km/h (2 Bft) W 270 5 min 5,3 C 20,7 C 8,5 km/h (2 Bft)
20.04.2015 14:40 16,9 C 20,4 C 21,5 C 21,3 C 21,3 C 4,4 C 48 % 40 % 100 % 1025,9 hPa 0,0 l/m 5,3 km/h (1 Bft) W 270 5 min 5,8 C 21,3 C 5,5 km/h (1 Bft)
20.04.2015 14:45 17,3 C 20,5 C 21,9 C 21,9 C 21,9 C 4,6 C 47 % 41 % 100 % 1025,9 hPa 0,0 l/m 4,2 km/h (1 Bft) NW 315 5 min 5,9 C 21,9 C 4,8 km/h (1 Bft)
20.04.2015 14:50 17,6 C 20,4 C 21,9 C 22,4 C 22,4 C 4,8 C 46 % 39 % 100 % 1025,9 hPa 0,0 l/m 4,0 km/h (1 Bft) W-SW 247 5 min 5,8 C 22,4 C 7,1 km/h (2 Bft)
20.04.2015 14:55 17,3 C 20,5 C 20,7 C 21,6 C 21,6 C 4,3 C 46 % 40 % 100 % 1025,9 hPa 0,0 l/m 7,1 km/h (2 Bft) W-SW 247 5 min 5,6 C 21,6 C 21,4 km/h (4 Bft)
20.04.2015 15:00 17,1 C 20,5 C 20,0 C 20,9 C 20,9 C 3,8 C 46 % 42 % 100 % 1025,6 hPa 0,0 l/m 8,2 km/h (2 Bft) W 270 5 min 5,4 C 20,9 C 7,1 km/h (2 Bft)
20.04.2015 15:05 17,5 C 20,5 C 19,8 C 21,6 C 21,6 C 4,1 C 46 % 43 % 100 % 1025,6 hPa 0,0 l/m 6,4 km/h (2 Bft) W-SW 247 5 min 5,8 C 21,6 C 13,8 km/h (3 Bft)
20.04.2015 15:10 17,6 C 20,6 C 19,4 C 21,9 C 21,9 C 4,3 C 45 % 43 % 100 % 1025,6 hPa 0,0 l/m 4,8 km/h (1 Bft) S 180 5 min 5,5 C 21,9 C 5,8 km/h (2 Bft)
20.04.2015 15:15 17,6 C 20,6 C 18,9 C 22,0 C 22,0 C 4,4 C 45 % 43 % 100 % 1025,6 hPa 0,0 l/m 5,6 km/h (1 Bft) W-NW 292 5 min 5,5 C 22,0 C 5,5 km/h (1 Bft)
20.04.2015 15:20 17,5 C 20,7 C 18,9 C 21,8 C 21,8 C 4,3 C 44 % 43 % 100 % 1025,7 hPa 0,0 l/m 6,0 km/h (2 Bft) S-SW 202 5 min 5,1 C 21,8 C 4,3 km/h (1 Bft)
20.04.2015 15:25 17,5 C 20,7 C 18,5 C 21,9 C 21,9 C 4,4 C 45 % 44 % 100 % 1025,7 hPa 0,0 l/m 6,0 km/h (2 Bft) N-NO 22 5 min 5,4 C 21,9 C 24,6 km/h (4 Bft)
20.04.2015 15:30 17,5 C 20,7 C 18,4 C 22,1 C 22,1 C 4,6 C 46 % 46 % 100 % 1025,7 hPa 0,0 l/m 4,8 km/h (1 Bft) SW 225 5 min 5,8 C 22,1 C 14,5 km/h (3 Bft)
20.04.2015 15:35 17,9 C 20,8 C 18,4 C 22,2 C 22,2 C 4,3 C 46 % 46 % 100 % 1025,7 hPa 0,0 l/m 5,1 km/h (1 Bft) W-SW 247 5 min 6,1 C 22,2 C 4,2 km/h (1 Bft)
20.04.2015 15:40 18,1 C 20,8 C 18,5 C 22,6 C 22,6 C 4,5 C 45 % 45 % 100 % 1025,1 hPa 0,0 l/m 4,8 km/h (1 Bft) S 180 5 min 6,0 C 22,6 C 4,3 km/h (1 Bft)
20.04.2015 15:45 18,3 C 20,8 C 18,4 C 23,0 C 23,0 C 4,7 C 45 % 47 % 100 % 1025,1 hPa 0,0 l/m 4,0 km/h (1 Bft) N 360 5 min 6,2 C 23,0 C 7,6 km/h (2 Bft)
20.04.2015 15:50 18,3 C 20,9 C 18,4 C 23,2 C 23,2 C 4,9 C 44 % 46 % 100 % 1025,1 hPa 0,0 l/m 4,0 km/h (1 Bft) W-SW 247 5 min 5,8 C 23,2 C 4,8 km/h (1 Bft)
20.04.2015 15:55 18,3 C 20,9 C 18,4 C 23,0 C 23,0 C 4,7 C 45 % 47 % 100 % 1025,1 hPa 0,0 l/m 4,7 km/h (1 Bft) SW 225 5 min 6,2 C 23,0 C 3,5 km/h (1 Bft)
20.04.2015 16:00 18,2 C 20,9 C 18,3 C 22,9 C 22,9 C 4,7 C 45 % 47 % 100 % 1025,7 hPa 0,0 l/m 4,8 km/h (1 Bft) SW 225 5 min 6,1 C 22,9 C 5,8 km/h (2 Bft)
20.04.2015 16:05 18,1 C 21,0 C 18,1 C 22,3 C 22,3 C 4,2 C 42 % 45 % 100 % 1025,7 hPa 0,0 l/m 4,8 km/h (1 Bft) SW 225 5 min 5,0 C 22,3 C 7,9 km/h (2 Bft)
20.04.2015 16:10 18,0 C 21,0 C 18,3 C 22,2 C 22,2 C 4,2 C 41 % 45 % 100 % 1025,7 hPa 0,0 l/m 5,8 km/h (2 Bft) W-SW 247 5 min 4,6 C 22,2 C 11,4 km/h (2 Bft)
20.04.2015 16:15 18,2 C 21,0 C 18,4 C 22,3 C 22,3 C 4,1 C 42 % 45 % 100 % 1025,7 hPa 0,0 l/m 6,9 km/h (2 Bft) S 180 5 min 5,1 C 22,3 C 12,6 km/h (3 Bft)
20.04.2015 16:20 18,2 C 21,1 C 18,3 C 22,2 C 22,2 C 4,0 C 42 % 45 % 100 % 1025,1 hPa 0,0 l/m 6,8 km/h (2 Bft) N-NW 337 5 min 5,1 C 22,2 C 6,6 km/h (2 Bft)
20.04.2015 16:25 17,9 C 21,1 C 18,0 C 21,8 C 21,8 C 3,9 C 44 % 46 % 100 % 1025,1 hPa 0,0 l/m 6,8 km/h (2 Bft) S 180 5 min 5,5 C 21,8 C 5,1 km/h (1 Bft)
20.04.2015 16:30 18,1 C 21,1 C 18,2 C 21,9 C 21,9 C 3,8 C 44 % 46 % 100 % 1025,1 hPa 0,0 l/m 5,3 km/h (1 Bft) SO 135 5 min 5,7 C 21,9 C 4,2 km/h (1 Bft)
20.04.2015 16:35 18,1 C 21,2 C 18,3 C 22,5 C 22,5 C 4,4 C 42 % 45 % 100 % 1025,1 hPa 0,0 l/m 4,5 km/h (1 Bft) NW 315 5 min 5,0 C 22,5 C 7,2 km/h (2 Bft)
20.04.2015 16:40 18,1 C 21,2 C 18,2 C 22,7 C 22,7 C 4,6 C 44 % 46 % 100 % 1024,9 hPa 0,0 l/m 4,0 km/h (1 Bft) NW 315 5 min 5,7 C 22,7 C 9,5 km/h (2 Bft)
20.04.2015 16:45 18,1 C 21,3 C 18,2 C 22,6 C 22,6 C 4,5 C 43 % 45 % 100 % 1024,9 hPa 0,0 l/m 4,5 km/h (1 Bft) S 180 5 min 5,3 C 22,6 C 8,4 km/h (2 Bft)
20.04.2015 16:50 18,1 C 21,3 C 18,4 C 22,6 C 22,6 C 4,5 C 42 % 45 % 100 % 1024,9 hPa 0,0 l/m 5,6 km/h (1 Bft) W-SW 247 5 min 5,0 C 22,6 C 5,5 km/h (1 Bft)
20.04.2015 16:55 18,1 C 21,3 C 18,8 C 22,5 C 22,5 C 4,4 C 43 % 45 % 100 % 1024,9 hPa 0,0 l/m 6,1 km/h (2 Bft) S-SW 202 5 min 5,3 C 22,5 C 5,5 km/h (1 Bft)
20.04.2015 17:00 18,2 C 21,4 C 19,1 C 22,6 C 22,6 C 4,4 C 43 % 44 % 100 % 1025,3 hPa 0,0 l/m 6,3 km/h (2 Bft) SW 225 5 min 5,4 C 22,6 C 9,0 km/h (2 Bft)
20.04.2015 17:05 18,0 C 21,5 C 19,5 C 22,3 C 22,3 C 4,3 C 42 % 44 % 100 % 1025,3 hPa 0,0 l/m 6,9 km/h (2 Bft) W-SW 247 5 min 4,9 C 22,3 C 10,1 km/h (2 Bft)
20.04.2015 17:10 18,1 C 21,5 C 19,5 C 22,3 C 22,3 C 4,2 C 44 % 44 % 100 % 1025,3 hPa 0,0 l/m 6,3 km/h (2 Bft) N-NW 337 5 min 5,7 C 22,3 C 7,2 km/h (2 Bft)
20.04.2015 17:15 18,3 C 21,6 C 19,5 C 22,6 C 22,6 C 4,3 C 41 % 43 % 100 % 1025,3 hPa 0,0 l/m 5,8 km/h (2 Bft) NW 315 5 min 4,8 C 22,6 C 13,7 km/h (3 Bft)
20.04.2015 17:20 18,2 C 21,6 C 19,3 C 22,4 C 22,4 C 4,2 C 41 % 42 % 100 % 1024,9 hPa 0,0 l/m 6,1 km/h (2 Bft) SW 225 5 min 4,7 C 22,4 C 4,7 km/h (1 Bft)
20.04.2015 17:25 18,1 C 21,6 C 19,3 C 21,8 C 21,8 C 3,7 C 42 % 43 % 97 % 1024,9 hPa 0,0 l/m 5,6 km/h (1 Bft) S-SW 202 5 min 5,0 C 21,8 C 6,4 km/h (2 Bft)
20.04.2015 17:30 18,3 C 21,6 C 19,6 C 22,0 C 22,0 C 3,7 C 42 % 42 % 97 % 1024,9 hPa 0,0 l/m 4,7 km/h (1 Bft) SW 225 5 min 5,2 C 22,0 C 5,5 km/h (1 Bft)
20.04.2015 17:35 18,4 C 21,7 C 19,5 C 22,1 C 22,1 C 3,7 C 41 % 41 % 97 % 1024,9 hPa 0,0 l/m 5,6 km/h (1 Bft) SW 225 5 min 4,9 C 22,1 C 6,0 km/h (2 Bft)
20.04.2015 17:40 18,3 C 21,7 C 19,4 C 22,0 C 22,0 C 3,7 C 41 % 42 % 97 % 1024,7 hPa 0,0 l/m 5,5 km/h (1 Bft) NW 315 5 min 4,8 C 22,0 C 4,8 km/h (1 Bft)
20.04.2015 17:45 18,5 C 21,6 C 19,5 C 22,3 C 22,3 C 3,8 C 40 % 41 % 100 % 1024,7 hPa 0,0 l/m 4,7 km/h (1 Bft) SW 225 5 min 4,6 C 22,3 C 3,5 km/h (1 Bft)
20.04.2015 17:50 18,5 C 21,7 C 19,7 C 22,4 C 22,4 C 3,9 C 40 % 41 % 100 % 1024,7 hPa 0,0 l/m 4,3 km/h (1 Bft) S-SO 157 5 min 4,6 C 22,4 C 3,5 km/h (1 Bft)
20.04.2015 17:55 18,7 C 21,7 C 19,5 C 22,5 C 22,5 C 3,8 C 38 % 39 % 100 % 1024,7 hPa 0,0 l/m 5,1 km/h (1 Bft) W-NW 292 5 min 4,1 C 22,5 C 19,0 km/h (3 Bft)
20.04.2015 18:00 18,7 C 21,7 C 19,2 C 22,5 C 22,5 C 3,8 C 39 % 39 % 100 % 1024,6 hPa 0,0 l/m 4,8 km/h (1 Bft) W 270 5 min 4,5 C 22,5 C 5,1 km/h (1 Bft)
20.04.2015 18:05 18,5 C 21,7 C 19,5 C 22,2 C 22,2 C 3,7 C 38 % 38 % 97 % 1024,6 hPa 0,0 l/m 4,7 km/h (1 Bft) W 270 5 min 3,9 C 22,2 C 3,4 km/h (1 Bft)
20.04.2015 18:10 18,5 C 21,7 C 19,1 C 22,2 C 22,2 C 3,7 C 38 % 38 % 97 % 1024,6 hPa 0,0 l/m 4,2 km/h (1 Bft) N-NO 22 5 min 3,9 C 22,2 C 5,8 km/h (2 Bft)
20.04.2015 18:15 18,3 C 21,8 C 18,7 C 22,1 C 22,1 C 3,8 C 38 % 39 % 100 % 1024,6 hPa 0,0 l/m 4,3 km/h (1 Bft) N-NW 337 5 min 3,7 C 22,1 C 7,1 km/h (2 Bft)
20.04.2015 18:20 18,2 C 21,8 C 18,5 C 21,9 C 21,9 C 3,7 C 39 % 39 % 97 % 1024,8 hPa 0,0 l/m 3,9 km/h (1 Bft) W-NW 292 5 min 4,0 C 21,9 C 1,9 km/h (1 Bft)
20.04.2015 18:25 18,2 C 21,8 C 18,4 C 22,1 C 22,1 C 3,9 C 38 % 39 % 100 % 1024,8 hPa 0,0 l/m 4,0 km/h (1 Bft) NW 315 5 min 3,7 C 22,1 C 8,0 km/h (2 Bft)
20.04.2015 18:30 18,3 C 21,8 C 18,2 C 22,1 C 22,1 C 3,8 C 38 % 40 % 100 % 1024,8 hPa 0,0 l/m 3,9 km/h (1 Bft) NW 315 5 min 3,7 C 22,1 C 2,9 km/h (1 Bft)
20.04.2015 18:35 18,1 C 21,8 C 18,1 C 21,5 C 21,5 C 3,4 C 38 % 40 % 89 % 1024,8 hPa 0,0 l/m 4,2 km/h (1 Bft) N-NO 22 5 min 3,6 C 21,5 C 4,7 km/h (1 Bft)
20.04.2015 18:40 18,0 C 21,9 C 17,8 C 20,8 C 20,8 C 2,8 C 39 % 41 % 74 % 1024,6 hPa 0,0 l/m 3,7 km/h (1 Bft) W-SW 247 5 min 3,8 C 20,8 C 4,5 km/h (1 Bft)
20.04.2015 18:45 17,9 C 22,0 C 17,5 C 19,9 C 19,9 C 2,0 C 39 % 41 % 53 % 1024,6 hPa 0,0 l/m 2,4 km/h (1 Bft) N-NW 337 0 min 3,8 C 19,9 C 12,4 km/h (3 Bft)
20.04.2015 18:50 17,9 C 22,0 C 17,3 C 19,4 C 19,4 C 1,5 C 39 % 41 % 39 % 1024,6 hPa 0,0 l/m 3,2 km/h (1 Bft) O-NO 67 0 min 3,8 C 19,4 C 4,2 km/h (1 Bft)
20.04.2015 18:55 17,6 C 22,0 C 17,3 C 19,1 C 19,1 C 1,5 C 40 % 42 % 39 % 1024,6 hPa 0,0 l/m 3,5 km/h (1 Bft) W-NW 292 0 min 3,8 C 19,1 C 2,1 km/h (1 Bft)
20.04.2015 19:00 17,7 C 22,0 C 17,2 C 19,2 C 19,2 C 1,5 C 40 % 43 % 39 % 1024,6 hPa 0,0 l/m 2,6 km/h (1 Bft) SO 135 0 min 3,9 C 19,2 C 0,0 km/h (0 Bft)
20.04.2015 19:05 17,7 C 22,0 C 17,0 C 19,3 C 19,3 C 1,6 C 40 % 43 % 42 % 1024,6 hPa 0,0 l/m 2,9 km/h (1 Bft) S-SW 202 0 min 3,9 C 19,3 C 3,5 km/h (1 Bft)
20.04.2015 19:10 17,6 C 22,0 C 17,0 C 19,4 C 19,4 C 1,8 C 40 % 43 % 47 % 1024,6 hPa 0,0 l/m 3,4 km/h (1 Bft) N-NW 337 5 min 3,8 C 19,4 C 5,0 km/h (1 Bft)
20.04.2015 19:15 17,5 C 22,0 C 16,9 C 19,3 C 19,3 C 1,8 C 41 % 43 % 47 % 1024,6 hPa 0,0 l/m 2,9 km/h (1 Bft) NW 315 5 min 4,1 C 19,3 C 2,7 km/h (1 Bft)
20.04.2015 19:20 17,4 C 22,1 C 16,6 C 19,0 C 19,0 C 1,6 C 41 % 44 % 42 % 1024,9 hPa 0,0 l/m 2,4 km/h (1 Bft) N 360 5 min 4,0 C 19,0 C 6,4 km/h (2 Bft)
20.04.2015 19:25 17,2 C 22,1 C 16,4 C 18,3 C 18,3 C 1,1 C 41 % 44 % 29 % 1024,9 hPa 0,0 l/m 2,7 km/h (1 Bft) N-NW 337 5 min 3,8 C 18,3 C 6,9 km/h (2 Bft)
20.04.2015 19:30 17,0 C 22,1 C 16,3 C 17,7 C 17,7 C 0,7 C 41 % 45 % 18 % 1024,9 hPa 0,0 l/m 4,0 km/h (1 Bft) NW 315 0 min 3,7 C 17,7 C 6,1 km/h (2 Bft)
20.04.2015 19:35 16,8 C 22,1 C 15,9 C 17,2 C 17,2 C 0,4 C 43 % 46 % 11 % 1024,9 hPa 0,0 l/m 3,9 km/h (1 Bft) SW 225 0 min 4,2 C 17,2 C 0,0 km/h (0 Bft)
20.04.2015 19:40 16,6 C 22,1 C 15,8 C 17,2 C 17,2 C 0,6 C 43 % 46 % 16 % 1025,6 hPa 0,0 l/m 2,9 km/h (1 Bft) N-NO 22 0 min 4,0 C 17,2 C 4,0 km/h (1 Bft)
20.04.2015 19:45 16,4 C 22,1 C 15,5 C 16,8 C 16,8 C 0,4 C 44 % 47 % 11 % 1025,6 hPa 0,0 l/m 1,8 km/h (1 Bft) O-NO 67 0 min 4,1 C 16,8 C 0,0 km/h (0 Bft)
20.04.2015 19:50 16,3 C 22,1 C 15,2 C 16,4 C 16,4 C 0,1 C 44 % 48 % 3 % 1025,6 hPa 0,0 l/m 1,6 km/h (1 Bft) N-NO 22 0 min 4,0 C 16,4 C 2,4 km/h (1 Bft)
20.04.2015 19:55 16,0 C 22,1 C 14,9 C 15,9 C 15,8 C 0,0 C 45 % 48 % 0 % 1025,6 hPa 0,0 l/m 0,6 km/h (0 Bft) O 90 0 min 4,1 C 15,8 C 0,0 km/h (0 Bft)
20.04.2015 20:00 15,9 C 22,1 C 14,7 C 15,7 C 15,3 C 0,0 C 45 % 49 % 0 % 1025,6 hPa 0,0 l/m 0,5 km/h (0 Bft) NW 315 0 min 4,0 C 15,3 C 0,0 km/h (0 Bft)
20.04.2015 20:05 15,7 C 22,1 C 14,3 C 15,4 C 14,7 C 0,0 C 46 % 50 % 0 % 1025,6 hPa 0,0 l/m 0,2 km/h (0 Bft) SW 225 0 min 4,1 C 14,7 C 0,0 km/h (0 Bft)
20.04.2015 20:10 15,5 C 22,1 C 14,1 C 15,1 C 14,3 C 0,0 C 46 % 50 % 0 % 1025,6 hPa 0,0 l/m 0,6 km/h (0 Bft) SO 135 0 min 3,9 C 14,3 C 1,9 km/h (1 Bft)
20.04.2015 20:15 15,2 C 22,1 C 14,0 C 14,7 C 13,8 C 0,0 C 47 % 51 % 0 % 1025,6 hPa 0,0 l/m 1,0 km/h (0 Bft) N 360 0 min 4,0 C 13,8 C 0,0 km/h (0 Bft)
20.04.2015 20:20 15,0 C 22,1 C 13,8 C 14,5 C 13,5 C 0,0 C 47 % 52 % 0 % 1025,5 hPa 0,0 l/m 0,8 km/h (0 Bft) N-NW 337 0 min 3,8 C 13,5 C 3,2 km/h (1 Bft)
20.04.2015 20:25 14,8 C 22,1 C 13,3 C 14,2 C 13,0 C 0,0 C 48 % 53 % 0 % 1025,5 hPa 0,0 l/m 0,3 km/h (0 Bft) N-NW 337 0 min 3,9 C 13,0 C 2,4 km/h (1 Bft)
20.04.2015 20:30 14,6 C 22,1 C 13,3 C 14,0 C 12,9 C 0,0 C 48 % 53 % 0 % 1025,5 hPa 0,0 l/m 0,6 km/h (0 Bft) N-NO 22 0 min 3,7 C 12,9 C 0,0 km/h (0 Bft)
20.04.2015 20:35 14,3 C 22,1 C 12,9 C 13,7 C 12,4 C 0,0 C 49 % 54 % 0 % 1025,5 hPa 0,0 l/m 0,3 km/h (0 Bft) N-NO 22 0 min 3,7 C 12,4 C 0,0 km/h (0 Bft)
20.04.2015 20:40 14,1 C 22,2 C 12,7 C 13,5 C 12,2 C 0,0 C 50 % 54 % 0 % 1025,8 hPa 0,0 l/m 0,0 km/h (0 Bft) N-NW 337 0 min 3,8 C 12,2 C 0,0 km/h (0 Bft)
20.04.2015 20:45 13,8 C 22,2 C 12,0 C 13,1 C 11,8 C 0,0 C 51 % 56 % 0 % 1025,8 hPa 0,0 l/m 0,0 km/h (0 Bft) N-NO 22 0 min 3,8 C 11,8 C 0,0 km/h (0 Bft)
20.04.2015 20:50 13,5 C 22,1 C 11,7 C 12,9 C 11,6 C 0,0 C 51 % 57 % 0 % 1025,8 hPa 0,0 l/m 0,0 km/h (0 Bft) N-NO 22 0 min 3,6 C 11,6 C 0,0 km/h (0 Bft)
20.04.2015 20:55 13,2 C 22,1 C 11,2 C 12,5 C 11,2 C 0,0 C 52 % 58 % 0 % 1025,8 hPa 0,0 l/m 0,0 km/h (0 Bft) O-SO 112 0 min 3,6 C 11,2 C 0,0 km/h (0 Bft)
20.04.2015 21:00 13,0 C 22,1 C 11,0 C 12,3 C 11,0 C 0,0 C 53 % 59 % 0 % 1026,1 hPa 0,0 l/m 0,0 km/h (0 Bft) N-NO 22 0 min 3,6 C 11,0 C 0,0 km/h (0 Bft)
20.04.2015 21:05 12,7 C 22,1 C 10,7 C 12,0 C 10,6 C 0,0 C 54 % 60 % 0 % 1026,1 hPa 0,0 l/m 0,0 km/h (0 Bft) N-NO 22 0 min 3,6 C 10,6 C 0,0 km/h (0 Bft)
20.04.2015 21:10 12,4 C 22,1 C 10,5 C 11,8 C 10,5 C 0,0 C 55 % 61 % 0 % 1026,1 hPa 0,0 l/m 0,0 km/h (0 Bft) NO 45 0 min 3,6 C 10,5 C 0,0 km/h (0 Bft)
20.04.2015 21:15 12,2 C 22,1 C 10,3 C 11,6 C 10,4 C 0,0 C 56 % 62 % 0 % 1026,1 hPa 0,0 l/m 0,0 km/h (0 Bft) O 90 0 min 3,7 C 10,4 C 0,0 km/h (0 Bft)
20.04.2015 21:20 12,0 C 22,1 C 10,1 C 11,4 C 10,3 C 0,0 C 56 % 63 % 0 % 1026,0 hPa 0,0 l/m 0,0 km/h (0 Bft) NO 45 0 min 3,5 C 10,3 C 0,0 km/h (0 Bft)
20.04.2015 21:25 11,9 C 22,2 C 9,9 C 11,3 C 10,2 C 0,0 C 58 % 63 % 0 % 1026,0 hPa 0,0 l/m 0,0 km/h (0 Bft) NO 45 0 min 3,9 C 10,2 C 0,0 km/h (0 Bft)
20.04.2015 21:30 11,7 C 22,2 C 9,9 C 11,2 C 10,1 C 0,0 C 58 % 64 % 0 % 1026,0 hPa 0,0 l/m 0,0 km/h (0 Bft) N-NO 22 0 min 3,7 C 10,1 C 0,0 km/h (0 Bft)
20.04.2015 21:35 11,5 C 22,2 C 9,7 C 10,9 C 9,8 C 0,0 C 59 % 65 % 0 % 1026,0 hPa 0,0 l/m 0,0 km/h (0 Bft) O-NO 67 0 min 3,8 C 9,8 C 0,0 km/h (0 Bft)
20.04.2015 21:40 11,3 C 22,2 C 9,4 C 10,8 C 9,7 C 0,0 C 59 % 65 % 0 % 1026,2 hPa 0,0 l/m 0,0 km/h (0 Bft) O 90 0 min 3,6 C 9,7 C 0,0 km/h (0 Bft)
20.04.2015 21:45 11,1 C 22,2 C 9,2 C 10,6 C 9,6 C 0,0 C 60 % 67 % 0 % 1026,2 hPa 0,0 l/m 0,3 km/h (0 Bft) NO 45 0 min 3,6 C 9,6 C 2,4 km/h (1 Bft)
20.04.2015 21:50 10,9 C 22,1 C 9,2 C 10,5 C 9,7 C 0,0 C 60 % 67 % 0 % 1026,2 hPa 0,0 l/m 0,5 km/h (0 Bft) O-NO 67 0 min 3,4 C 9,7 C 0,0 km/h (0 Bft)
20.04.2015 21:55 10,8 C 22,1 C 9,1 C 10,4 C 9,6 C 0,0 C 61 % 68 % 0 % 1026,2 hPa 0,0 l/m 0,3 km/h (0 Bft) N-NO 22 0 min 3,6 C 9,6 C 0,0 km/h (0 Bft)
20.04.2015 22:00 10,8 C 22,1 C 8,9 C 10,4 C 9,5 C 0,0 C 61 % 68 % 0 % 1026,7 hPa 0,0 l/m 0,0 km/h (0 Bft) N-NO 22 0 min 3,6 C 9,5 C 0,0 km/h (0 Bft)
20.04.2015 22:05 10,5 C 22,1 C 8,8 C 10,1 C 9,3 C 0,0 C 62 % 68 % 0 % 1026,7 hPa 0,0 l/m 0,0 km/h (0 Bft) N 360 0 min 3,5 C 9,3 C 0,0 km/h (0 Bft)
20.04.2015 22:10 10,4 C 22,1 C 8,7 C 10,0 C 9,3 C 0,0 C 62 % 69 % 0 % 1026,7 hPa 0,0 l/m 0,0 km/h (0 Bft) NO 45 0 min 3,4 C 9,3 C 0,0 km/h (0 Bft)
20.04.2015 22:15 10,3 C 22,1 C 8,5 C 9,9 C 9,2 C 0,0 C 62 % 69 % 0 % 1026,7 hPa 0,0 l/m 0,0 km/h (0 Bft) O-NO 67 0 min 3,3 C 9,2 C 0,0 km/h (0 Bft)
20.04.2015 22:20 10,3 C 22,1 C 8,4 C 9,9 C 9,1 C 0,0 C 62 % 70 % 0 % 1026,8 hPa 0,0 l/m 0,2 km/h (0 Bft) O 90 0 min 3,3 C 9,1 C 0,0 km/h (0 Bft)
20.04.2015 22:25 10,0 C 22,1 C 8,4 C 9,6 C 8,9 C 0,0 C 63 % 70 % 0 % 1026,8 hPa 0,0 l/m 0,2 km/h (0 Bft) O 90 0 min 3,3 C 8,9 C 0,0 km/h (0 Bft)
20.04.2015 22:30 10,1 C 22,1 C 8,4 C 9,6 C 8,7 C 0,0 C 64 % 70 % 0 % 1026,8 hPa 0,0 l/m 0,0 km/h (0 Bft) O-NO 67 0 min 3,6 C 8,7 C 0,0 km/h (0 Bft)
20.04.2015 22:35 9,9 C 22,0 C 8,3 C 9,5 C 8,7 C 0,0 C 64 % 70 % 0 % 1026,8 hPa 0,0 l/m 0,0 km/h (0 Bft) O-NO 67 0 min 3,4 C 8,7 C 0,0 km/h (0 Bft)
20.04.2015 22:40 9,9 C 22,0 C 8,3 C 9,5 C 8,7 C 0,0 C 64 % 71 % 0 % 1026,6 hPa 0,0 l/m 0,0 km/h (0 Bft) O-NO 67 0 min 3,4 C 8,7 C 0,0 km/h (0 Bft)
20.04.2015 22:45 9,7 C 22,0 C 8,0 C 9,3 C 8,5 C 0,0 C 65 % 71 % 0 % 1026,6 hPa 0,0 l/m 0,0 km/h (0 Bft) O-NO 67 0 min 3,4 C 8,5 C 0,0 km/h (0 Bft)
20.04.2015 22:50 9,6 C 22,0 C 7,9 C 9,2 C 8,5 C 0,0 C 65 % 72 % 0 % 1026,6 hPa 0,0 l/m 0,0 km/h (0 Bft) NO 45 0 min 3,4 C 8,5 C 0,0 km/h (0 Bft)
20.04.2015 22:55 9,5 C 22,1 C 7,7 C 9,1 C 8,3 C 0,0 C 65 % 72 % 0 % 1026,6 hPa 0,0 l/m 0,0 km/h (0 Bft) O-NO 67 0 min 3,3 C 8,3 C 0,0 km/h (0 Bft)
20.04.2015 23:00 9,4 C 22,1 C 7,7 C 9,0 C 8,2 C 0,0 C 66 % 73 % 0 % 1027,0 hPa 0,0 l/m 0,5 km/h (0 Bft) O-NO 67 0 min 3,4 C 8,2 C 2,3 km/h (1 Bft)
20.04.2015 23:05 9,3 C 22,1 C 7,9 C 8,9 C 8,2 C 0,0 C 67 % 74 % 0 % 1027,0 hPa 0,0 l/m 1,6 km/h (1 Bft) O-NO 67 0 min 3,5 C 8,2 C 2,7 km/h (1 Bft)
20.04.2015 23:10 9,2 C 22,1 C 7,7 C 8,9 C 8,2 C 0,0 C 67 % 74 % 0 % 1027,0 hPa 0,0 l/m 1,9 km/h (1 Bft) O-NO 67 0 min 3,4 C 8,2 C 1,8 km/h (1 Bft)
20.04.2015 23:15 9,1 C 22,0 C 7,6 C 8,7 C 8,0 C 0,0 C 67 % 73 % 0 % 1027,0 hPa 0,0 l/m 0,8 km/h (0 Bft) O-NO 67 0 min 3,3 C 8,0 C 0,0 km/h (0 Bft)
20.04.2015 23:20 8,9 C 22,0 C 7,5 C 8,5 C 7,8 C 0,0 C 67 % 73 % 0 % 1027,3 hPa 0,0 l/m 0,2 km/h (0 Bft) NW 315 0 min 3,1 C 7,8 C 0,0 km/h (0 Bft)
20.04.2015 23:25 8,7 C 22,0 C 7,3 C 8,3 C 7,4 C 0,0 C 67 % 73 % 0 % 1027,3 hPa 0,0 l/m 0,0 km/h (0 Bft) O-NO 67 0 min 2,9 C 7,4 C 0,0 km/h (0 Bft)
20.04.2015 23:30 8,5 C 22,0 C 7,1 C 8,1 C 7,2 C 0,0 C 68 % 73 % 0 % 1027,3 hPa 0,0 l/m 0,0 km/h (0 Bft) NO 45 0 min 2,9 C 7,2 C 0,0 km/h (0 Bft)
20.04.2015 23:35 8,4 C 22,0 C 6,9 C 8,0 C 7,1 C 0,0 C 68 % 74 % 0 % 1027,3 hPa 0,0 l/m 0,0 km/h (0 Bft) O 90 0 min 2,8 C 7,1 C 0,0 km/h (0 Bft)
20.04.2015 23:40 8,3 C 22,0 C 6,7 C 7,8 C 6,9 C 0,0 C 68 % 74 % 0 % 1027,4 hPa 0,0 l/m 0,0 km/h (0 Bft) O-NO 67 0 min 2,7 C 6,9 C 0,0 km/h (0 Bft)
20.04.2015 23:45 8,1 C 21,9 C 6,7 C 7,6 C 6,5 C 0,0 C 69 % 75 % 0 % 1027,4 hPa 0,0 l/m 0,0 km/h (0 Bft) O-NO 67 0 min 2,8 C 6,5 C 0,0 km/h (0 Bft)
20.04.2015 23:50 7,8 C 21,9 C 6,6 C 7,3 C 6,2 C 0,0 C 69 % 75 % 0 % 1027,4 hPa 0,0 l/m 0,0 km/h (0 Bft) O-NO 67 0 min 2,5 C 6,2 C 0,0 km/h (0 Bft)
20.04.2015 23:55 7,7 C 21,9 C 6,5 C 7,1 C 5,9 C 0,0 C 70 % 75 % 0 % 1027,4 hPa 0,0 l/m 0,0 km/h (0 Bft) W 270 0 min 2,6 C 5,9 C 0,0 km/h (0 Bft)
_ Min-Zeit 06:25 09:05 06:10 06:10 05:55 00:00 17:55 18:05 00:00 00:00 - 00:00 - - - 06:25 05:55 00:00
Minimum _ 0,4 C 19,4 C 0,8 C 0,3 C 0,0 C 0,0 C 38 % 38 % 0 % 1024,6 hPa - 0,0 km/h (0 Bft) - - - -2,0 C 0,0 C 0,0 km/h (0 Bft)
_ Max-Zeit 17:55 20:40 14:05 15:50 15:50 08:10 07:15 05:50 07:10 23:40 00:00 14:15 - - 07:05 15:45 15:50 15:25
Maximum _ 18,7 C 22,2 C 22,1 C 23,2 C 23,2 C 10,1 C 86 % 87 % 100 % 1027,4 hPa 0,0 l/m 9,0 km/h
S-SW (2 Bft)
- - 5 min 6,2 C 23,2 C 24,6 km/h
N-NO (4 Bft)
Durchschnitt _ 9,5 C 20,7 C 10,6 C 11,8 C 11,5 C 2,4 C 64 % 64 % 48 % 1025,7 hPa #0,0 l/m 2,5 km/h (1 Bft) W-SW - #10:35 h 2,3 C 11,5 C 3,8 km/h (1 Bft)
2015 www.wetterstation-wechselburg.de